Zurück zum Katalog

AC1-003

AktivKommunikationSSO
NORAD 66689·PAYLOAD·🇬🇧 United Kingdom

Gestartet Nov 28, 2025 von Vandenberg Space Force Base

Loading…

Nächste Überflüge (nächste 24 Stunden)

TLE

AktuellSource: Space-Track

Epoche: Sep 14, 2026, 03:42 UTC

1 66689U 25276Z   26257.15430979  .00001624  00000-0  81887-4 0  9996
2 66689  97.4131 328.7427 0004274  73.1879 286.9824 15.18547379 43902

Verfolge AC1-003 in Echtzeit mit AllMySat

Download on the App Store